Chippewa, MI

6:22 AM EST on December 11, 2019 (GMT -0500)
Chippewa County International

Weather History for KCIU - November, 2019

Change the Weather History Date:

Tuesday, November 19, 2019

  Actual Average Record
Temperature  
Mean Temperature 34 °F -  
Max Temperature 39 °F 38 °F 53 °F (1991)
Min Temperature 30 °F 24 °F 3 °F (2014)
Degree Days  
Heating Degree Days 30    
Moisture  
Dew Point 33 °F    
Average Humidity 95    
Maximum Humidity 100    
Minimum Humidity 87    
Precipitation  
Precipitation 0.00 in - - ()
Sea Level Pressure  
Sea Level Pressure 29.83 in    
Wind  
Wind Speed 2 mph ()    
Max Wind Speed 5 mph    
Max Gust Speed -    
Visibility 3.5 miles    
Events Fog    
Averages and records for this station are not official NWS values.
T = Trace of Precipitation, MM = Missing Value Source: Averaged Metar Reports

Daily Weather History Graph

Daily Weather History Graph

Search for Another Location

Airport or City:

Astronomy

Nov. 19, 2019 Rise Set
Actual Time 7:44 AM EST 5:01 PM EST
Civil Twilight 7:11 AM EST 5:34 PM EST
Nautical Twilight 6:34 AM EST 6:11 PM EST
Astronomical Twilight 5:59 AM EST 6:46 PM EST
Moon No Moon Rise 1:52 PM EST (11/19)
Length of Visible Light 10h 23m
Length of Day
9h 17m
Waning Gibbous, 52% of the Moon is Illuminated
Nov 19
Waning Gibbous
Nov 19
Last Quarter
Nov 26
New
Dec 4
First Quarter
Dec 12
Full

Hourly Weather History & Observations

Time (EST) Temp. Windchill Dew Point Humidity Pressure Visibility Wind Dir Wind Speed Gust Speed Precip Events Conditions
12:56 AM 34.0 °F 29.8 °F 32.0 °F 92% 29.73 in 10.0 mi SE 4.6 mph - N/A   Overcast
1:44 AM 33.8 °F 29.6 °F 32.0 °F 93% 29.72 in 10.0 mi ESE 4.6 mph - N/A   Overcast
1:56 AM 34.0 °F 29.8 °F 32.0 °F 92% 29.74 in 10.0 mi SE 4.6 mph - N/A   Overcast
2:53 AM 33.8 °F - 30.2 °F 87% 29.72 in 8.0 mi Calm Calm - 0.00 in   Overcast
2:56 AM 34.0 °F - 30.9 °F 89% 29.74 in 9.0 mi Calm Calm - 0.00 in   Overcast
3:56 AM 34.0 °F - 32.0 °F 92% 29.74 in 7.0 mi Calm Calm - N/A   Overcast
4:56 AM 34.0 °F - 32.0 °F 92% 29.74 in 6.0 mi Calm Calm - N/A   Overcast
5:43 AM 33.8 °F - 33.8 °F 100% 29.72 in 2.0 mi Calm Calm - N/A   Overcast
5:53 AM 33.8 °F - 33.8 °F 100% 29.72 in 1.5 mi Calm Calm - N/A   Overcast
5:56 AM 34.0 °F 31.0 °F 33.1 °F 96% 29.75 in 1.2 mi East 3.5 mph - N/A   Overcast
6:17 AM 33.8 °F - 33.8 °F 100% 29.72 in 1.0 mi Calm Calm - N/A   Overcast
6:43 AM 33.8 °F 29.6 °F 33.8 °F 100% 29.72 in 0.8 mi ESE 4.6 mph - N/A   Overcast
6:56 AM 34.0 °F 31.0 °F 33.1 °F 96% 29.75 in 1.0 mi ESE 3.5 mph - N/A   Overcast
7:34 AM 33.8 °F 30.8 °F 33.8 °F 100% 29.73 in 0.5 mi ESE 3.5 mph - N/A Fog Fog
7:51 AM 33.8 °F 30.8 °F 33.8 °F 100% 29.74 in 0.2 mi SE 3.5 mph - N/A Fog Fog
7:56 AM 34.0 °F 29.8 °F 34.0 °F 100% 29.76 in 0.2 mi SE 4.6 mph - N/A Fog Fog
8:56 AM 34.0 °F 31.0 °F 34.0 °F 100% 29.77 in 0.2 mi SE 3.5 mph - N/A Fog Fog
9:47 AM 35.6 °F - 35.6 °F 100% 29.76 in 0.5 mi Calm Calm - N/A Fog Fog
9:56 AM 35.1 °F 32.2 °F 35.1 °F 100% 29.78 in 0.5 mi SSE 3.5 mph - N/A Fog Fog
10:05 AM 35.6 °F 32.8 °F 35.6 °F 100% 29.76 in 0.8 mi SE 3.5 mph - N/A   Overcast
10:12 AM 35.6 °F 31.7 °F 35.6 °F 100% 29.76 in 1.0 mi SE 4.6 mph - N/A   Overcast
10:35 AM 35.6 °F 32.8 °F 35.6 °F 100% 29.77 in 1.2 mi SSE 3.5 mph - N/A   Overcast
10:56 AM 36.0 °F 32.1 °F 36.0 °F 100% 29.80 in 2.0 mi SSE 4.6 mph - N/A   Overcast
11:10 AM 37.4 °F 33.8 °F 35.6 °F 93% 29.77 in 2.5 mi SSE 4.6 mph - N/A   Overcast
11:56 AM 37.9 °F 34.4 °F 36.0 °F 93% 29.80 in 3.0 mi SE 4.6 mph - N/A   Overcast
1:56 PM 39.0 °F - 36.0 °F 89% 29.81 in 8.0 mi Calm Calm - N/A   Overcast
2:14 PM 39.2 °F - 35.6 °F 87% 29.79 in 10.0 mi Calm Calm - N/A   Overcast
2:56 PM 39.0 °F - 36.0 °F 89% 29.81 in 9.0 mi Calm Calm - N/A   Overcast
3:46 PM 37.4 °F 34.9 °F 35.6 °F 93% 29.81 in 8.0 mi West 3.5 mph - N/A   Overcast
3:56 PM 37.9 °F - 36.0 °F 93% 29.84 in 9.0 mi Calm Calm - N/A   Overcast
4:29 PM 37.4 °F - 35.6 °F 93% 29.83 in 5.0 mi Calm Calm - N/A   Overcast
4:45 PM 37.4 °F - 33.8 °F 87% 29.84 in 7.0 mi Calm Calm - N/A   Overcast
4:53 PM 35.6 °F - 33.8 °F 93% 29.84 in 5.0 mi Calm Calm - N/A   Overcast
4:56 PM 36.0 °F - 34.0 °F 93% 29.86 in 5.0 mi Calm Calm - N/A   Overcast
5:56 PM 35.1 °F - 33.1 °F 92% 29.88 in 4.0 mi Calm Calm - N/A   Overcast
6:09 PM 35.6 °F - 33.8 °F 93% 29.86 in 2.5 mi Calm Calm - N/A   Overcast
6:18 PM 35.6 °F - 33.8 °F 93% 29.86 in 4.0 mi Calm Calm - N/A   Overcast
6:38 PM 35.6 °F - 33.8 °F 93% 29.86 in 2.0 mi Calm Calm - N/A   Overcast
6:51 PM 35.6 °F 32.8 °F 33.8 °F 93% 29.87 in 4.0 mi North 3.5 mph - N/A   Overcast
6:56 PM 35.1 °F 32.2 °F 34.0 °F 96% 29.89 in 4.0 mi North 3.5 mph - N/A   Overcast
7:08 PM 35.6 °F 32.8 °F 33.8 °F 93% 29.87 in 4.0 mi North 3.5 mph - N/A   Overcast
7:19 PM 33.8 °F - 33.8 °F 100% 29.87 in 5.0 mi Calm Calm - N/A   Overcast
7:29 PM 35.6 °F - 33.8 °F 93% 29.88 in 5.0 mi Calm Calm - N/A   Overcast
8:31 PM 35.6 °F - 33.8 °F 93% 29.89 in 1.8 mi Calm Calm - N/A   Overcast
8:38 PM 35.6 °F - 33.8 °F 93% 29.89 in 1.0 mi Calm Calm - N/A   Overcast
8:45 PM 33.8 °F - 32.0 °F 93% 29.89 in 2.0 mi Calm Calm - N/A   Overcast
8:56 PM 34.0 °F - 32.0 °F 92% 29.92 in 2.0 mi Calm Calm - N/A   Overcast
9:03 PM 33.8 °F - 32.0 °F 93% 29.90 in 1.8 mi Calm Calm - N/A   Overcast
9:11 PM 33.8 °F - 32.0 °F 93% 29.90 in 2.5 mi Calm Calm - N/A   Overcast
9:20 PM 33.8 °F - 32.0 °F 93% 29.91 in 3.0 mi Calm Calm - N/A   Overcast
9:27 PM 33.8 °F 30.8 °F 33.8 °F 100% 29.91 in 4.0 mi West 3.5 mph - N/A   Overcast
9:56 PM 35.1 °F 32.2 °F 35.1 °F 100% 29.94 in 8.0 mi WSW 3.5 mph - N/A   Overcast
10:10 PM 35.6 °F - 33.8 °F 93% 29.91 in 1.5 mi Calm Calm - N/A   Overcast
10:18 PM 33.8 °F - 33.8 °F 100% 29.91 in 1.0 mi Calm Calm - N/A   Overcast
10:25 PM 33.8 °F - 32.0 °F 93% 29.91 in 0.5 mi Calm Calm - N/A Fog Fog
10:43 PM 33.8 °F - 30.2 °F 87% 29.92 in 0.2 mi Calm Calm - N/A Fog Fog
10:52 PM 33.8 °F - 30.2 °F 87% 29.92 in 0.5 mi Calm Calm - N/A Fog Fog
10:56 PM 33.1 °F 30.0 °F 32.0 °F 96% 29.94 in 0.2 mi WSW 3.5 mph - N/A Fog Fog
11:04 PM 32.0 °F - 30.2 °F 93% 29.92 in 0.5 mi Calm Calm - N/A Fog Fog
11:46 PM 30.2 °F 26.7 °F 30.2 °F 100% 29.93 in 0.2 mi West 3.5 mph - N/A Fog Light Freezing Fog
11:56 PM 30.9 °F 27.5 °F 30.0 °F 96% 29.96 in 0.8 mi West 3.5 mph - N/A   Mostly Cloudy